Location: Hiram
(41.3130°N, 81.1440°W)
Time: 19:52:30
(UTC-05:00)

Daily predictions for brighter satellites

Satellite Brightness Start Highest point End
(mag) Time Altitude Azimuth Time Altitude Azimuth Time Altitude Azimuth
USA 229 DEB 4.3 18:31:54 10° NNW 18:38:35 41° NE 18:45:19 10° ESE
USA 229 4.3 18:32:00 10° NNW 18:38:40 40° NE 18:45:24 10° ESE
Genesis I 3.4 18:35:38 10° NNW 18:39:29 51° NE 18:43:19 10° SE
Cosmos 1238 Rocket 2.4 18:37:32 10° N 18:40:22 41° E 18:43:17 10° SSE
Okean 1 Rocket 3.5 18:37:26 10° SSE 18:41:36 40° E 18:45:47 10° NNE
Cosmos 1709 Rocket 4.0 18:37:33 10° S 18:43:43 75° E 18:49:52 10° N
METEOR-M 4.2 18:40:34 10° SSE 18:45:49 62° ENE 18:51:06 10° N
ASTRO F (AKARI) 4.4 18:42:59 10° NNE 18:46:28 67° ESE 18:49:45 10° S
Cosmos 1025 Rocket 4.0 18:44:15 10° NNE 18:48:00 27° ENE 18:51:43 10° SE
Cosmos 1484 Rocket 4.3 18:44:47 10° S 18:48:32 42° W 18:52:15 10° NNW
Cosmos 2151 Rocket 4.3 18:44:45 10° SSW 18:49:12 60° W 18:53:41 10° N
OTV 4 2.8 18:47:51 10° S 18:49:20 13° SSE 18:50:48 10° SE
Spot 2 Rocket 4.4 18:46:48 10° ESE 18:51:02 28° ENE 18:55:18 10° N
USA 215 4.5 18:48:53 10° NE 18:54:43 36° NNW 19:00:31 10° W
Cosmos 2322 3.8 18:51:23 10° NNW 18:57:08 84° WSW 19:02:50 10° SSE
Hubble Space Telescope 3.2 18:59:32 10° S 19:00:36 11° S 19:01:40 10° SSE
BREEZE-M DEB (TANK) 3.0 18:59:12 10° SW 19:03:37 41° SSE 19:05:20 17° E
Cosmos 1850 Rocket 4.0 19:00:41 10° SSW 19:05:57 75° ESE 19:11:19 10° NNE
Cosmos 2208 Rocket 4.1 19:01:23 10° NNW 19:06:49 67° ENE 19:12:10 10° SSE
CZ-3C R/B 4.0 19:04:16 10° SW 19:06:56 11° SSW 19:08:53 10° S
Meteor 1-19 Rocket 4.3 19:01:48 10° N 19:07:32 89° W 19:13:20 10° S
SJ-6B 2.7 19:05:17 10° SSE 19:09:15 76° ENE 19:13:09 10° N
Cosmos 405 Rocket 3.9 19:07:28 10° NNE 19:10:48 24° ENE 19:13:11 15° ESE
Cosmos 2237 Rocket 3.3 19:06:53 10° N 19:11:33 25° NE 19:14:36 16° E
ALOS 2.3 19:08:20 10° SSE 19:12:55 58° ENE 19:17:30 10° N
HJ-1C 3.5 19:10:50 10° SSE 19:14:06 51° ENE 19:17:23 10° N
Cosmos 2333 4.2 19:08:24 10° NNW 19:14:06 63° ENE 19:19:48 10° SE
Cosmos 2297 Rocket 3.5 19:10:46 10° SE 19:14:09 16° E 19:14:23 16° E
Cosmos 2237 4.3 19:10:03 10° NNW 19:15:48 88° WSW 19:21:31 10° SSE
COSMOS 2428 2.6 19:10:15 10° NNW 19:15:58 74° ENE 19:21:38 10° SSE
H-2A R/B 3.3 19:12:36 10° SE 19:16:01 35° ENE 19:19:29 10° N
CZ-2D R/B 4.1 19:14:14 14° ESE 19:16:46 28° ENE 19:20:03 10° NNE
Okean 1-7 Rocket 3.5 19:14:22 10° N 19:18:54 77° E 19:23:21 10° SSE
Meteor 2-4 Rocket 3.6 19:16:03 10° N 19:21:35 86° ENE 19:26:58 10° S
Gbstr 26 Del rocket 3.6 19:19:00 10° WSW 19:22:40 42° NNW 19:25:40 14° NE
Cosmos 2285 Rocket 4.1 19:16:28 10° NNW 19:22:50 60° ENE 19:29:09 10° SSE
Cosmos 2219 Rocket 2.4 19:18:40 10° NNW 19:24:06 48° ENE 19:28:57 13° SE
Cosmos 2360 Rocket 3.5 19:18:50 10° NW 19:24:09 44° WSW 19:29:29 10° S
Meteor 1-23 Rocket 4.2 19:21:31 10° N 19:27:20 79° E 19:33:03 10° SSE
Okean 2 3.6 19:24:27 10° N 19:28:30 48° E 19:32:32 10° SSE
Cosmos 2219 3.3 19:26:30 10° SSW 19:32:15 80° WNW 19:38:01 10° NNE
FREGAT/IRIS 4.1 19:30:08 10° S 19:33:03 40° W 19:36:00 10° NNW
Atlas Centaur 2 4.3 19:29:43 10° S 19:33:28 15° SSE 19:35:47 12° SE
Cosmos 2227 Rocket 2.8 19:29:20 10° SSE 19:34:18 33° ESE 19:38:28 14° NE
Helios 1A 3.5 19:33:28 27° ESE 19:34:58 37° ENE 19:38:48 10° N
Helios 1B rocket 3.1 19:31:39 10° NNE 19:35:25 33° E 19:39:09 10° SSE
Abrixas rocket 2.6 19:32:28 10° WSW 19:35:47 60° NNW 19:37:11 31° NE
Cosmos 1536 3.7 19:35:50 10° SSW 19:39:42 50° W 19:43:35 10° N
SAR-Lupe-1 4.3 19:44:47 45° ENE 19:44:47 45° ENE 19:48:14 10° N
SAR-Lupe-4 3.6 19:44:54 45° ESE 19:45:38 56° ENE 19:49:09 10° N
Cosmos 841 Rocket 4.4 19:42:06 10° N 19:46:24 27° ENE 19:46:24 27° ENE
Cosmos 1455 Rocket 3.4 19:42:26 10° SSE 19:46:32 41° E 19:50:38 10° NNE
SL-16 R/B 3.5 19:42:58 10° N 19:47:17 22° NE 19:47:22 22° NE
Cosmos 1437 4.3 19:51:09 10° N 19:52:45 25° NNE 19:52:45 25° NNE
Cosmos 1763 Rocket 3.9 19:52:25 10° N 19:57:15 40° ENE 19:57:29 40° ENE
Resurs 01 Rocket 2.1 19:55:18 10° S 19:59:38 60° W 20:04:00 10° NNW
Cosmos 1610 Rocket 4.4 19:59:44 10° S 20:05:57 85° W 20:12:09 10° N
ATLAS 2A CENTAUR R/B 4.5 20:07:12 10° S 20:09:00 11° SSE 20:10:06 11° SSE
Resurs 1-3 4.3 20:05:46 10° S 20:10:03 54° W 20:14:22 10° NNW
Cosmos 2333 Rocket 2.1 20:04:20 10° NNW 20:10:07 90° W 20:12:59 31° SSE
Cosmos 1980 3.5 20:05:29 10° NNW 20:11:09 75° ENE 20:12:50 46° SE
GEOS 3 Rocket 3.6 20:08:20 21° NE 20:12:00 86° NW 20:17:18 10° SW
GPS 2-04 Rocket1 3.7 20:10:26 10° WSW 20:14:12 38° S 20:14:12 38° S
Cosmos 1892 Rocket 4.3 20:19:07 10° NNW 20:23:21 52° W 20:26:07 20° SSW
OTV 4 3.4 20:22:11 10° WSW 20:22:38 13° SW 20:22:38 13° SW
Cosmos 468 Rocket 4.5 20:21:00 10° NNW 20:26:09 59° WSW 20:28:51 28° S
Cosmos 1295 Rocket 4.3 20:33:36 69° ESE 20:33:56 71° E 20:40:12 10° NNE
Cosmos 2082 3.6 20:30:42 10° SSW 20:36:26 87° WNW 20:37:59 51° NNE
NOSS 3-1 (A) 3.9 20:35:00 10° NNW 20:42:38 77° NE 20:44:06 62° ESE
ERS-1 Rocket 4.3 20:45:10 29° N 20:45:10 29° N 20:47:38 10° N
Envisat 3.3 20:47:02 61° NW 20:47:02 61° NW 20:51:18 10° NNW
ATLAS 2AS CENTAUR R/B 3.9 20:40:58 10° NNW 20:48:06 33° NE 20:48:06 33° NE
USA 32 4.5 20:49:26 10° NNW 20:54:07 58° WNW 20:54:07 58° WNW
Cosmos 2237 Rocket 2.8 20:50:23 10° NNW 20:55:53 52° WSW 20:56:29 49° SW
Cosmos 2297 Rocket 2.7 20:51:56 10° SSW 20:56:25 54° WSW 20:56:25 54° WSW
NOSS 3-1 (C) 4.2 20:52:50 10° NW 21:00:28 71° WSW 21:02:16 56° S
Cosmos 2219 Rocket 4.2 21:03:20 10° NW 21:07:41 23° WSW 21:10:47 15° SW
H-2A R/B 4.5 21:03:53 10° SSW 21:42:30 14° E 21:57:41 10° E
H-2A R/B 4.5 21:03:53 10° SSW 21:42:31 14° E 21:57:41 10° E
H-2A R/B 4.5 21:03:53 10° SSW 21:42:32 14° E 21:57:41 10° E
Cosmos 2227 Rocket 3.5 21:13:04 10° SW 21:18:15 36° WNW 21:20:37 26° NNW
SL-16 R/B 3.7 21:26:14 10° NNW 21:29:17 32° NW 21:29:17 32° NW
ATLAS 2AS CENTAUR R/B 4.5 22:31:53 10° NW 22:35:33 30° NW 22:35:33 30° NW
